This demonstration page uses our WeatherBlox Daily Observations layout. Learn more.

Left ArrowRight Arrow

Hourly Observations for May 24, 2015

Temp ( °F °C ) Dew Point ( °F °C ) Humidity (%) Winds ( mph kmh ) Pressure ( in mb ) Visibility ( mi km ) Precip ( " mm )
12:16 am 00:16 Clear 63 17 36 2 37 37 SE 3 6 30.24 1024 10 16.0934 N/A
12:36 am 00:36 Clear 63 17 36 2 37 37 SE 5 7 30.24 1024 10 16.0934 N/A
12:56 am 00:56 Clear 63 17 36 2 37 37 SSE 3 6 30.24 1024 10 16.0934 N/A
1:16 am 01:16 Clear 63 17 36 2 37 37 SE 5 7 30.24 1024 10 16.0934 N/A
1:36 am 01:36 Clear 63 17 36 2 37 37 SE 5 7 30.21 1023 10 16.0934 N/A
1:56 am 01:56 Clear 61 16 36 2 39 39 SE 5 7 30.21 1023 10 16.0934 N/A
2:17 am 02:17 Clear 61 16 36 2 39 39 SE 5 7 30.21 1023 10 16.0934 N/A
2:36 am 02:36 Clear 61 16 37 3 42 42 SE 5 7 30.21 1023 10 16.0934 N/A
2:56 am 02:56 Clear 61 16 37 3 42 42 SE 5 7 30.21 1023 10 16.0934 N/A
3:16 am 03:16 Clear 61 16 37 3 42 42 SE 3 6 30.21 1023 10 16.0934 N/A
3:36 am 03:36 Clear 61 16 37 3 42 42 Calm 30.21 1023 10 16.0934 N/A
3:56 am 03:56 Clear 61 16 37 3 42 42 SE 3 6 30.21 1023 10 16.0934 N/A
4:16 am 04:16 Clear 61 16 39 4 45 45 SSE 3 6 30.21 1023 10 16.0934 N/A
4:36 am 04:36 Clear 61 16 39 4 45 45 SSE 3 6 30.21 1023 10 16.0934 N/A
4:56 am 04:56 Clear 61 16 39 4 45 45 SE 5 7 30.21 1023 10 16.0934 N/A
5:16 am 05:16 Clear 61 16 39 4 45 45 SE 5 7 30.21 1023 10 16.0934 N/A
5:36 am 05:36 Clear 61 16 39 4 45 45 SE 5 7 30.21 1023 10 16.0934 N/A
5:56 am 05:56 Clear 61 16 39 4 45 45 SSE 6 9 30.21 1023 10 16.0934 N/A
6:16 am 06:16 Clear 59 15 41 5 51 51 SSE 5 7 30.21 1023 10 16.0934 N/A
6:36 am 06:36 Sunny 59 15 41 5 51 51 SE 6 9 30.21 1023 10 16.0934 N/A
6:56 am 06:56 Sunny 61 16 41 5 48 48 SE 7 11 30.21 1023 10 16.0934 N/A
7:17 am 07:17 Sunny 63 17 41 5 45 45 SE 5 7 30.21 1023 10 16.0934 N/A
7:36 am 07:36 Sunny 63 17 41 5 45 45 SE 6 9 30.21 1023 10 16.0934 N/A
7:56 am 07:56 Sunny 63 17 41 5 45 45 SSE 7 11 30.21 1023 10 16.0934 N/A
8:16 am 08:16 Sunny 63 17 43 6 49 49 SSE 8 13 30.21 1023 10 16.0934 N/A
8:36 am 08:36 Sunny 64 18 43 6 46 46 SSE 10 17 30.21 1023 10 16.0934 N/A
8:56 am 08:56 Partly Cloudy 64 18 45 7 49 49 SSE 8 13 30.21 1023 10 16.0934 N/A
9:16 am 09:16 Sunny 64 18 43 6 46 46 S 8 13 30.24 1024 10 16.0934 N/A
9:36 am 09:36 Sunny 66 19 45 7 46 46 S 8 13 30.21 1023 10 16.0934 N/A
9:56 am 09:56 Sunny 68 20 43 6 40 40 S 9 15 30.21 1023 10 16.0934 N/A
10:16 am 10:16 Sunny 70 21 43 6 38 38 SSW 7 11 30.21 1023 10 16.0934 N/A
10:36 am 10:36 Sunny 73 23 41 5 31 31 SSW 10 17 30.18 1022 10 16.0934 N/A
10:56 am 10:56 Sunny 77 25 39 4 26 26 SSW 8 13 30.18 1022 10 16.0934 N/A
11:16 am 11:16 Sunny 77 25 37 3 24 24 SSW 10 17 30.18 1022 10 16.0934 N/A
11:36 am 11:36 Sunny 79 26 37 3 23 23 S 10 17 30.18 1022 10 16.0934 N/A
11:56 am 11:56 Sunny 79 26 37 3 23 23 S 14 22 30.15 1021 10 16.0934 N/A
12:16 pm 12:16 Sunny 79 26 36 2 21 21 S 10 17 30.15 1021 10 16.0934 N/A
12:36 pm 12:36 Sunny 81 27 37 3 21 21 S 9 15 30.15 1021 10 16.0934 N/A
12:56 pm 12:56 Sunny 82 28 36 2 19 19 SSW 13 20 30.15 1021 10 16.0934 N/A
1:16 pm 13:16 Sunny 82 28 36 2 19 19 S 13 20 30.15 1021 10 16.0934 N/A
1:36 pm 13:36 Sunny 82 28 36 2 19 19 S 15 24 30.15 1021 10 16.0934 N/A
1:56 pm 13:56 Sunny 84 29 34 1 16 16 S 16 26 30.15 1021 10 16.0934 N/A
2:16 pm 14:16 Sunny 84 29 34 1 16 16 SSW 16 26 30.15 1021 10 16.0934 N/A
2:36 pm 14:36 Sunny 84 29 34 1 16 16 SSW 17 28 30.15 1021 10 16.0934 N/A
2:56 pm 14:56 Sunny 84 29 34 1 16 16 SSW 15 24 30.15 1021 10 16.0934 N/A
3:16 pm 15:16 Sunny 84 29 32 0 15 15 S 14 22 30.12 1020 10 16.0934 N/A
3:36 pm 15:36 Sunny 84 29 32 0 15 15 SSE 13 20 30.12 1020 10 16.0934 N/A
3:56 pm 15:56 Sunny 84 29 30 -1 14 14 S 13 20 30.09 1019 10 16.0934 N/A
4:16 pm 16:16 Sunny 86 30 30 -1 13 13 S 15 24 30.09 1019 10 16.0934 N/A
4:36 pm 16:36 Sunny 86 30 28 -2 12 12 S 14 22 30.09 1019 10 16.0934 N/A
4:56 pm 16:56 Sunny 84 29 28 -2 13 13 S 16 26 30.09 1019 10 16.0934 N/A
5:16 pm 17:16 Sunny 86 30 30 -1 13 13 S 15 24 30.09 1019 10 16.0934 N/A
5:36 pm 17:36 Sunny 84 29 30 -1 14 14 S 17 28 30.06 1018 10 16.0934 N/A
5:56 pm 17:56 Sunny 84 29 30 -1 14 14 S 16 26 30.06 1018 10 16.0934 N/A
6:17 pm 18:17 Sunny 84 29 32 0 15 15 S 16 26 30.06 1018 10 16.0934 N/A
6:36 pm 18:36 Sunny 82 28 32 0 16 16 S 14 22 30.03 1017 10 16.0934 N/A
6:56 pm 18:56 Sunny 82 28 34 1 17 17 S 14 22 30.03 1017 10 16.0934 N/A
7:16 pm 19:16 Sunny 82 28 34 1 17 17 S 16 26 30.03 1017 10 16.0934 N/A
7:36 pm 19:36 Sunny 82 28 36 2 19 19 SSE 15 24 30.03 1017 10 16.0934 N/A
7:56 pm 19:56 Sunny 81 27 36 2 20 20 S 13 20 30.03 1017 10 16.0934 N/A
8:16 pm 20:16 Sunny 81 27 37 3 21 21 S 13 20 30.03 1017 10 16.0934 N/A
8:36 pm 20:36 Sunny 79 26 37 3 23 23 S 13 20 30.03 1017 10 16.0934 N/A
8:56 pm 20:56 Sunny 79 26 39 4 24 24 S 10 17 30.03 1017 10 16.0934 N/A
9:16 pm 21:16 Clear 77 25 39 4 26 26 S 10 17 30.03 1017 10 16.0934 N/A
9:36 pm 21:36 Clear 77 25 41 5 28 28 SSE 9 15 30.03 1017 10 16.0934 N/A
9:56 pm 21:56 Clear 75 24 43 6 31 31 S 7 11 30.03 1017 10 16.0934 N/A
10:16 pm 22:16 Clear 75 24 43 6 31 31 SSE 8 13 30.03 1017 10 16.0934 N/A
10:36 pm 22:36 Clear 73 23 45 7 36 36 SSE 6 9 30.06 1018 10 16.0934 N/A
10:57 pm 22:57 Clear 73 23 45 7 36 36 SSE 8 13 30.06 1018 10 16.0934 N/A
11:16 pm 23:16 Clear 73 23 45 7 36 36 SSE 10 17 30.03 1017 10 16.0934 N/A
11:36 pm 23:36 Clear 73 23 45 7 36 36 SSE 10 17 30.06 1018 10 16.0934 N/A
11:57 pm 23:57 Clear 73 23 45 7 36 36 SSE 9 15 30.03 1017 10 16.0934 N/A

Powered by AerisWeather